Time,TemperatureF,DewpointF,PressureIn,WindDirection,WindDirectionDegrees,WindSpeedMPH,WindSpeedGustMPH,Humidity,HourlyPrecipIn,Conditions,Clouds,dailyrainin,SolarRadiationWatts/m^2,SoftwareType,DateUTC
2013-01-24 00:02:00,68.0,59.0,-100.00,SE,137,5.0,8.0,72,0.00,,,0.00,1.000000,,2013-01-24 10:02:00,
2013-01-24 00:12:00,68.0,59.0,-100.00,SE,137,5.0,8.0,72,0.00,,,0.00,1.000000,,2013-01-24 10:12:00,
2013-01-24 00:22:00,68.0,59.0,-100.00,SE,137,5.0,8.0,72,0.00,,,0.00,1.000000,,2013-01-24 10:22:00,
2013-01-24 00:32:00,68.0,59.0,-100.00,SE,137,5.0,8.0,72,0.00,,,0.00,1.000000,,2013-01-24 10:32:00,
2013-01-24 01:02:00,67.0,55.0,-100.00,SE,138,6.0,8.0,66,0.00,,,0.00,1.000000,,2013-01-24 11:02:00,
2013-01-24 01:12:00,67.0,55.0,-100.00,SE,138,6.0,8.0,66,0.00,,,0.00,1.000000,,2013-01-24 11:12:00,
2013-01-24 01:22:00,67.0,55.0,-100.00,SE,138,6.0,8.0,66,0.00,,,0.00,1.000000,,2013-01-24 11:22:00,
2013-01-24 01:32:00,67.0,55.0,-100.00,SE,138,6.0,8.0,66,0.00,,,0.00,1.000000,,2013-01-24 11:32:00,
2013-01-24 02:03:00,65.0,54.0,-100.00,SE,140,7.0,11.0,68,0.00,,,0.00,1.000000,,2013-01-24 12:03:00,
2013-01-24 02:12:00,65.0,54.0,-100.00,SE,140,7.0,11.0,68,0.00,,,0.00,1.000000,,2013-01-24 12:12:00,
2013-01-24 02:22:00,65.0,54.0,-100.00,SE,140,7.0,11.0,68,0.00,,,0.00,1.000000,,2013-01-24 12:22:00,
2013-01-24 02:32:00,65.0,54.0,-100.00,SE,140,7.0,11.0,68,0.00,,,0.00,1.000000,,2013-01-24 12:32:00,
2013-01-24 03:02:00,63.0,54.0,-100.00,SE,135,8.0,11.0,73,0.00,,,0.00,1.000000,,2013-01-24 13:02:00,
2013-01-24 03:12:00,63.0,54.0,-100.00,SE,135,8.0,11.0,73,0.00,,,0.00,1.000000,,2013-01-24 13:12:00,
2013-01-24 03:22:00,63.0,54.0,-100.00,SE,135,8.0,11.0,73,0.00,,,0.00,1.000000,,2013-01-24 13:22:00,
2013-01-24 03:32:00,63.0,54.0,-100.00,SE,135,8.0,11.0,73,0.00,,,0.00,1.000000,,2013-01-24 13:32:00,
2013-01-24 04:02:00,62.0,52.0,-100.00,SE,135,9.0,13.0,70,0.00,,,0.00,1.000000,,2013-01-24 14:02:00,
2013-01-24 04:12:00,62.0,52.0,-100.00,SE,135,9.0,13.0,70,0.00,,,0.00,1.000000,,2013-01-24 14:12:00,
2013-01-24 04:22:00,62.0,52.0,-100.00,SE,135,9.0,13.0,70,0.00,,,0.00,1.000000,,2013-01-24 14:22:00,
2013-01-24 04:32:00,62.0,52.0,-100.00,SE,135,9.0,13.0,70,0.00,,,0.00,1.000000,,2013-01-24 14:32:00,
2013-01-24 05:03:00,63.0,53.0,-100.00,SE,137,10.0,15.0,69,0.00,,,0.00,1.000000,,2013-01-24 15:03:00,
2013-01-24 05:12:00,63.0,53.0,-100.00,SE,137,10.0,15.0,69,0.00,,,0.00,1.000000,,2013-01-24 15:12:00,
2013-01-24 05:22:00,63.0,53.0,-100.00,SE,137,10.0,15.0,69,0.00,,,0.00,1.000000,,2013-01-24 15:22:00,
2013-01-24 05:32:00,63.0,53.0,-100.00,SE,137,10.0,15.0,69,0.00,,,0.00,1.000000,,2013-01-24 15:32:00,
2013-01-24 05:53:00,62.0,51.0,-100.00,SE,134,9.0,15.0,67,0.00,,,0.00,1.000000,,2013-01-24 15:53:00,
2013-01-24 06:03:00,62.0,51.0,-100.00,SE,134,9.0,15.0,67,0.00,,,0.00,1.000000,,2013-01-24 16:03:00,
2013-01-24 06:12:00,62.0,51.0,-100.00,SE,134,9.0,15.0,67,0.00,,,0.00,1.000000,,2013-01-24 16:12:00,
2013-01-24 06:22:00,62.0,51.0,-100.00,SE,134,9.0,15.0,67,0.00,,,0.00,1.000000,,2013-01-24 16:22:00,
2013-01-24 06:33:00,62.0,51.0,-100.00,SE,134,9.0,15.0,67,0.00,,,0.00,1.000000,,2013-01-24 16:33:00,
2013-01-24 07:02:00,63.0,50.0,-100.00,SE,130,9.0,15.0,63,0.00,,,0.00,1.000000,,2013-01-24 17:02:00,
2013-01-24 07:11:00,63.0,50.0,-100.00,SE,130,9.0,15.0,63,0.00,,,0.00,1.000000,,2013-01-24 17:11:00,
2013-01-24 07:21:00,63.0,50.0,-100.00,SE,130,9.0,15.0,63,0.00,,,0.00,1.000000,,2013-01-24 17:21:00,
2013-01-24 07:31:00,63.0,50.0,-100.00,SE,130,9.0,15.0,63,0.00,,,0.00,1.000000,,2013-01-24 17:31:00,
2013-01-24 08:02:00,64.0,52.0,-100.00,SE,139,9.0,14.0,65,0.00,,,0.00,10.000000,,2013-01-24 18:02:00,
2013-01-24 08:12:00,64.0,52.0,-100.00,SE,139,9.0,14.0,65,0.00,,,0.00,10.000000,,2013-01-24 18:12:00,
2013-01-24 08:22:00,64.0,52.0,-100.00,SE,139,9.0,14.0,65,0.00,,,0.00,10.000000,,2013-01-24 18:22:00,
2013-01-24 08:32:00,64.0,52.0,-100.00,SE,139,9.0,14.0,65,0.00,,,0.00,10.000000,,2013-01-24 18:32:00,
2013-01-24 09:02:00,71.0,55.0,-100.00,SE,146,7.0,12.0,58,0.00,,,0.00,119.000000,,2013-01-24 19:02:00,
2013-01-24 09:12:00,71.0,55.0,-100.00,SE,146,7.0,12.0,58,0.00,,,0.00,119.000000,,2013-01-24 19:12:00,
2013-01-24 09:21:00,71.0,55.0,-100.00,SE,146,7.0,12.0,58,0.00,,,0.00,119.000000,,2013-01-24 19:21:00,
2013-01-24 09:32:00,71.0,55.0,-100.00,SE,146,7.0,12.0,58,0.00,,,0.00,119.000000,,2013-01-24 19:32:00,
2013-01-24 11:02:00,77.0,55.0,-100.00,WNW,290,6.0,10.0,46,-99.99,,,0.00,584.000000,,2013-01-24 21:02:00,
2013-01-24 11:12:00,77.0,55.0,-100.00,WNW,290,6.0,10.0,46,-99.99,,,0.00,584.000000,,2013-01-24 21:12:00,
2013-01-24 11:22:00,77.0,55.0,-100.00,WNW,290,6.0,10.0,46,-99.99,,,0.00,584.000000,,2013-01-24 21:22:00,
2013-01-24 11:32:00,77.0,55.0,-100.00,WNW,290,6.0,10.0,46,-99.99,,,0.00,584.000000,,2013-01-24 21:32:00,
2013-01-24 12:02:00,78.0,57.0,-100.00,WNW,290,6.0,12.0,49,0.00,,,0.00,709.000000,,2013-01-24 22:02:00,
2013-01-24 12:12:00,78.0,57.0,-100.00,WNW,290,6.0,12.0,49,0.00,,,0.00,709.000000,,2013-01-24 22:12:00,
2013-01-24 12:22:00,78.0,57.0,-100.00,WNW,290,6.0,12.0,49,0.00,,,0.00,709.000000,,2013-01-24 22:22:00,
2013-01-24 12:32:00,78.0,57.0,-100.00,WNW,290,6.0,12.0,49,0.00,,,0.00,709.000000,,2013-01-24 22:32:00,
2013-01-24 13:02:00,78.0,58.0,-100.00,WNW,284,9.0,13.0,51,0.00,,,0.00,788.000000,,2013-01-24 23:02:00,
2013-01-24 13:11:00,78.0,58.0,-100.00,WNW,284,9.0,13.0,51,0.00,,,0.00,788.000000,,2013-01-24 23:11:00,
2013-01-24 13:21:00,78.0,58.0,-100.00,WNW,284,9.0,13.0,51,0.00,,,0.00,788.000000,,2013-01-24 23:21:00,
2013-01-24 13:32:00,78.0,58.0,-100.00,WNW,284,9.0,13.0,51,0.00,,,0.00,788.000000,,2013-01-24 23:32:00,
2013-01-24 14:02:00,76.0,61.0,-100.00,WNW,283,9.0,16.0,59,0.00,,,0.00,501.000000,,2013-01-25 00:02:00,
2013-01-24 14:12:00,76.0,61.0,-100.00,WNW,283,9.0,16.0,59,0.00,,,0.00,501.000000,,2013-01-25 00:12:00,
2013-01-24 14:22:00,76.0,61.0,-100.00,WNW,283,9.0,16.0,59,0.00,,,0.00,501.000000,,2013-01-25 00:22:00,
2013-01-24 14:32:00,76.0,61.0,-100.00,WNW,283,9.0,16.0,59,0.00,,,0.00,501.000000,,2013-01-25 00:32:00,
2013-01-24 14:52:00,75.0,61.0,-100.00,WNW,285,7.0,14.0,62,0.00,,,0.00,266.000000,,2013-01-25 00:52:00,
2013-01-24 15:01:00,75.0,61.0,-100.00,WNW,285,7.0,14.0,62,0.00,,,0.00,266.000000,,2013-01-25 01:01:00,
2013-01-24 15:12:00,75.0,61.0,-100.00,WNW,285,7.0,14.0,62,0.00,,,0.00,266.000000,,2013-01-25 01:12:00,
2013-01-24 15:21:00,75.0,61.0,-100.00,WNW,285,7.0,14.0,62,0.00,,,0.00,266.000000,,2013-01-25 01:21:00,
2013-01-24 15:31:00,75.0,61.0,-100.00,WNW,285,7.0,14.0,62,0.00,,,0.00,266.000000,,2013-01-25 01:31:00,
2013-01-24 15:52:00,75.0,61.0,-100.00,WSW,242,7.0,11.0,62,0.00,,,0.00,267.000000,,2013-01-25 01:52:00,
2013-01-24 16:02:00,75.0,61.0,-100.00,WSW,242,7.0,11.0,62,0.00,,,0.00,267.000000,,2013-01-25 02:02:00,
2013-01-24 16:11:00,75.0,61.0,-100.00,WSW,242,7.0,11.0,62,0.00,,,0.00,267.000000,,2013-01-25 02:11:00,
2013-01-24 16:22:00,75.0,61.0,-100.00,WSW,242,7.0,11.0,62,0.00,,,0.00,267.000000,,2013-01-25 02:22:00,
2013-01-24 16:32:00,75.0,61.0,-100.00,WSW,242,7.0,11.0,62,0.00,,,0.00,267.000000,,2013-01-25 02:32:00,
2013-01-24 17:02:00,75.0,60.0,-100.00,West,279,6.0,11.0,59,0.00,,,0.00,232.000000,,2013-01-25 03:02:00,
2013-01-24 17:12:00,75.0,60.0,-100.00,West,279,6.0,11.0,59,0.00,,,0.00,232.000000,,2013-01-25 03:12:00,
2013-01-24 17:22:00,75.0,60.0,-100.00,West,279,6.0,11.0,59,0.00,,,0.00,232.000000,,2013-01-25 03:22:00,
2013-01-24 17:32:00,75.0,60.0,-100.00,West,279,6.0,11.0,59,0.00,,,0.00,232.000000,,2013-01-25 03:32:00,
2013-01-24 18:02:00,73.0,61.0,-100.00,NW,320,4.0,10.0,66,0.00,,,0.00,116.000000,,2013-01-25 04:02:00,
2013-01-24 18:12:00,73.0,61.0,-100.00,NW,320,4.0,10.0,66,0.00,,,0.00,116.000000,,2013-01-25 04:12:00,
2013-01-24 18:22:00,73.0,61.0,-100.00,NW,320,4.0,10.0,66,0.00,,,0.00,116.000000,,2013-01-25 04:22:00,
2013-01-24 18:31:00,73.0,61.0,-100.00,NW,320,4.0,10.0,66,0.00,,,0.00,116.000000,,2013-01-25 04:31:00,
2013-01-24 19:03:00,71.0,63.0,-100.00,NW,321,3.0,6.0,75,0.00,,,0.00,14.000000,,2013-01-25 05:03:00,
2013-01-24 19:12:00,71.0,63.0,-100.00,NW,321,3.0,6.0,75,0.00,,,0.00,14.000000,,2013-01-25 05:12:00,
2013-01-24 19:22:00,71.0,63.0,-100.00,NW,321,3.0,6.0,75,0.00,,,0.00,14.000000,,2013-01-25 05:22:00,
2013-01-24 19:32:00,71.0,63.0,-100.00,NW,321,3.0,6.0,75,0.00,,,0.00,14.000000,,2013-01-25 05:32:00,
2013-01-24 20:02:00,68.0,62.0,-100.00,SE,130,4.0,6.0,81,0.00,,,0.00,1.000000,,2013-01-25 06:02:00,
2013-01-24 20:11:00,68.0,62.0,-100.00,SE,130,4.0,6.0,81,0.00,,,0.00,1.000000,,2013-01-25 06:11:00,
2013-01-24 20:21:00,68.0,62.0,-100.00,SE,130,4.0,6.0,81,0.00,,,0.00,1.000000,,2013-01-25 06:21:00,
2013-01-24 20:31:00,68.0,62.0,-100.00,SE,130,4.0,6.0,81,0.00,,,0.00,1.000000,,2013-01-25 06:31:00,
2013-01-24 20:52:00,66.0,57.0,-100.00,SE,128,8.0,10.0,72,0.00,,,0.00,1.000000,,2013-01-25 06:52:00,
2013-01-24 21:02:00,66.0,57.0,-100.00,SE,128,8.0,10.0,72,0.00,,,0.00,1.000000,,2013-01-25 07:02:00,
2013-01-24 21:11:00,66.0,57.0,-100.00,SE,128,8.0,10.0,72,0.00,,,0.00,1.000000,,2013-01-25 07:11:00,
2013-01-24 21:21:00,66.0,57.0,-100.00,SE,128,8.0,10.0,72,0.00,,,0.00,1.000000,,2013-01-25 07:21:00,
2013-01-24 21:31:00,66.0,57.0,-100.00,SE,128,8.0,10.0,72,0.00,,,0.00,1.000000,,2013-01-25 07:31:00,
2013-01-24 22:01:00,63.0,54.0,-100.00,ESE,123,6.0,10.0,73,0.00,,,0.00,1.000000,,2013-01-25 08:01:00,
2013-01-24 22:11:00,63.0,54.0,-100.00,ESE,123,6.0,10.0,73,0.00,,,0.00,1.000000,,2013-01-25 08:11:00,
2013-01-24 22:21:00,63.0,54.0,-100.00,ESE,123,6.0,10.0,73,0.00,,,0.00,1.000000,,2013-01-25 08:21:00,
2013-01-24 22:32:00,63.0,54.0,-100.00,ESE,123,6.0,10.0,73,0.00,,,0.00,1.000000,,2013-01-25 08:32:00,
2013-01-24 23:01:00,65.0,55.0,-100.00,SE,129,7.0,11.0,69,0.00,,,0.00,1.000000,,2013-01-25 09:01:00,
2013-01-24 23:11:00,65.0,55.0,-100.00,SE,129,7.0,11.0,69,0.00,,,0.00,1.000000,,2013-01-25 09:11:00,
2013-01-24 23:21:00,65.0,55.0,-100.00,SE,129,7.0,11.0,69,0.00,,,0.00,1.000000,,2013-01-25 09:21:00,
2013-01-24 23:31:00,65.0,55.0,-100.00,SE,129,7.0,11.0,69,0.00,,,0.00,1.000000,,2013-01-25 09:31:00,